Location: Abraham Lincoln Continuation High School
(33.9711°N, 117.3662°W)
Time: 05:07:27
(UTC+00:00)

Sich 1 Rocket - Pass Details

Date: 21 September 2020
Orbit: 616 x 652 km, 82.5° (Epoch: 25 October)

Event Time Altitude Azimuth Distance (km) Brightness Sun altitude
Rises 02:30:19 0° 180° (S) 2,905 6.9 -9.6°
Reaches altitude 10° 02:32:32 10° 178° (S) 2,007 6.1 -10.0°
Maximum altitude 02:36:58 71° 94° (E) 675 3.5 -10.9°
Drops below altitude 10° 02:41:29 10° 11° (N) 2,043 6.2 -11.9°
Sets 02:43:45 0° 10° (N) 2,962 7.1 -12.3°
